sat.trackr.live / text

‹ back to catalog

HULIANWANG DIGUI-87

NORAD 65995 · 2025-231A

PAYLOAD ACTIVE UNKNOWN

§ Identity

Operator
Country
PRC
Launch date
2025-10-16
Launch site
WSC
Launch vehicle
Mass (kg)
RCS (m²)

External: N2YO · Heavens-Above · Gunter

§ Orbital elements

Epoch: 2026-09-20T11:49:17.057856Z

Period
108.33 min
Inclination
49.9993°
Eccentricity
0.0000399
Mean motion
13.29328298 rev/d
Perigee alt
1,149.0 km
Apogee alt
1,149.6 km
Semi-major
7,527.4 km
B*
4.1043e-5
RAAN
193.9957°
Arg perigee
44.4072°
Mean anomaly
315.6832°
Rev number
4,556

§ Raw data

HULIANWANG DIGUI-871 65995U 25231A   26263.49255854 -.00000105  00000+0  41043-4 0  99902 65995  49.9993 193.9957 0000399  44.4072 315.6832 13.29328298 45569

JSON: /api/v1/satellites/65995 · /tle

For live sub-satellite position, see the globe view (requires WebGL).

§ Visibility from observer

Set your observer location to see the next 7 days of passes ≥ 10°. The values pass through the URL so the page stays shareable.

No JS? Fill the form by hand. The geolocation button needs JavaScript.